Time,TemperatureF,DewpointF,PressureIn,WindDirection,WindDirectionDegrees,WindSpeedMPH,WindSpeedGustMPH,Humidity,HourlyPrecipIn,Conditions,Clouds,dailyrainin,SoftwareType,DateUTC
2013-04-20 00:08:00,44.5,36.0,30.12,NW,326,9.0,-999.0,71,-99.99,,,0.00,weatherlink.com 1.10,2013-04-20 05:08:00,
2013-04-20 00:22:00,44.3,35.0,30.13,NW,318,6.0,-999.0,71,-99.99,,,0.00,weatherlink.com 1.10,2013-04-20 05:22:00,
2013-04-20 00:38:00,43.7,36.0,30.13,WNW,299,1.0,-999.0,73,-99.99,,,0.00,weatherlink.com 1.10,2013-04-20 05:38:00,
2013-04-20 00:52:00,43.2,36.0,30.13,NW,313,2.0,-999.0,75,-99.99,,,0.00,weatherlink.com 1.10,2013-04-20 05:52:00,
2013-04-20 01:07:00,43.1,36.0,30.13,NW,321,0.0,-999.0,75,-99.99,,,0.00,weatherlink.com 1.10,2013-04-20 06:07:00,
2013-04-20 01:23:00,43.2,35.0,30.12,North,360,1.0,-999.0,73,-99.99,,,0.00,weatherlink.com 1.10,2013-04-20 06:23:00,
2013-04-20 01:37:00,41.9,36.0,30.12,NNW,327,0.0,-999.0,80,-99.99,,,0.00,weatherlink.com 1.10,2013-04-20 06:37:00,
2013-04-20 01:52:00,41.2,36.0,30.12,NW,326,0.0,-999.0,81,-99.99,,,0.00,weatherlink.com 1.10,2013-04-20 06:52:00,
2013-04-20 02:07:00,40.1,36.0,30.12,WNW,297,0.0,-999.0,84,-99.99,,,0.00,weatherlink.com 1.10,2013-04-20 07:07:00,
2013-04-20 02:23:00,39.3,36.0,30.12,WNW,297,0.0,-999.0,86,-99.99,,,0.00,weatherlink.com 1.10,2013-04-20 07:23:00,
2013-04-20 02:38:00,38.6,35.0,30.12,WNW,297,0.0,-999.0,88,-99.99,,,0.00,weatherlink.com 1.10,2013-04-20 07:38:00,
2013-04-20 02:53:00,38.4,36.0,30.13,WNW,297,0.0,-999.0,89,-99.99,,,0.00,weatherlink.com 1.10,2013-04-20 07:53:00,
2013-04-20 03:08:00,37.8,35.0,30.13,WNW,297,0.0,-999.0,90,-99.99,,,0.00,weatherlink.com 1.10,2013-04-20 08:08:00,
2013-04-20 03:23:00,37.9,36.0,30.13,WNW,297,0.0,-999.0,91,-99.99,,,0.00,weatherlink.com 1.10,2013-04-20 08:23:00,
2013-04-20 03:38:00,37.5,35.0,30.13,WNW,297,0.0,-999.0,91,-99.99,,,0.00,weatherlink.com 1.10,2013-04-20 08:38:00,
2013-04-20 03:53:00,36.9,35.0,30.13,WNW,297,0.0,-999.0,92,-99.99,,,0.00,weatherlink.com 1.10,2013-04-20 08:53:00,
2013-04-20 04:08:00,36.8,35.0,30.14,WNW,297,0.0,-999.0,92,-99.99,,,0.00,weatherlink.com 1.10,2013-04-20 09:08:00,
2013-04-20 04:23:00,36.6,35.0,30.14,WNW,297,0.0,-999.0,93,-99.99,,,0.00,weatherlink.com 1.10,2013-04-20 09:23:00,
2013-04-20 04:38:00,36.4,35.0,30.14,WNW,297,0.0,-999.0,93,-99.99,,,0.00,weatherlink.com 1.10,2013-04-20 09:38:00,
2013-04-20 04:53:00,36.2,34.0,30.15,WNW,297,0.0,-999.0,93,-99.99,,,0.00,weatherlink.com 1.10,2013-04-20 09:53:00,
2013-04-20 05:08:00,36.1,34.0,30.15,WNW,297,0.0,-999.0,93,-99.99,,,0.00,weatherlink.com 1.10,2013-04-20 10:08:00,
2013-04-20 05:23:00,35.7,34.0,30.15,WNW,297,0.0,-999.0,93,-99.99,,,0.00,weatherlink.com 1.10,2013-04-20 10:23:00,
2013-04-20 05:38:00,35.6,34.0,30.15,WNW,297,0.0,-999.0,94,-99.99,,,0.00,weatherlink.com 1.10,2013-04-20 10:38:00,
2013-04-20 05:53:00,35.3,34.0,30.16,WNW,297,0.0,-999.0,94,-99.99,,,0.00,weatherlink.com 1.10,2013-04-20 10:53:00,
2013-04-20 06:08:00,35.1,33.0,30.16,WNW,297,0.0,-999.0,93,-99.99,,,0.00,weatherlink.com 1.10,2013-04-20 11:08:00,
2013-04-20 06:23:00,34.7,33.0,30.17,WNW,297,0.0,-999.0,94,-99.99,,,0.00,weatherlink.com 1.10,2013-04-20 11:23:00,
2013-04-20 06:38:00,34.5,33.0,30.18,WNW,297,0.0,-999.0,94,-99.99,,,0.00,weatherlink.com 1.10,2013-04-20 11:38:00,
2013-04-20 06:53:00,34.8,33.0,30.18,WNW,297,0.0,-999.0,94,-99.99,,,0.00,weatherlink.com 1.10,2013-04-20 11:53:00,
2013-04-20 07:08:00,36.1,35.0,30.19,WNW,297,0.0,-999.0,95,-99.99,,,0.00,weatherlink.com 1.10,2013-04-20 12:08:00,
2013-04-20 07:23:00,37.9,36.0,30.20,WNW,297,0.0,-999.0,94,-99.99,,,0.00,weatherlink.com 1.10,2013-04-20 12:23:00,
2013-04-20 07:38:00,40.2,38.0,30.20,WNW,297,0.0,-999.0,91,-99.99,,,0.00,weatherlink.com 1.10,2013-04-20 12:38:00,
2013-04-20 07:53:00,41.6,38.0,30.20,WNW,297,0.0,-999.0,87,-99.99,,,0.00,weatherlink.com 1.10,2013-04-20 12:53:00,
2013-04-20 08:08:00,42.7,39.0,30.21,WNW,297,0.0,-999.0,85,-99.99,,,0.00,weatherlink.com 1.10,2013-04-20 13:08:00,
2013-04-20 08:23:00,44.3,39.0,30.21,WNW,297,0.0,-999.0,82,-99.99,,,0.00,weatherlink.com 1.10,2013-04-20 13:23:00,
2013-04-20 08:38:00,46.7,41.0,30.21,NNW,345,0.0,-999.0,79,-99.99,,,0.00,weatherlink.com 1.10,2013-04-20 13:38:00,
2013-04-20 08:53:00,47.4,39.0,30.22,North,355,0.0,-999.0,73,-99.99,,,0.00,weatherlink.com 1.10,2013-04-20 13:53:00,
2013-04-20 09:08:00,48.6,39.0,30.22,NNW,348,2.0,-999.0,69,-99.99,,,0.00,weatherlink.com 1.10,2013-04-20 14:08:00,
2013-04-20 09:23:00,49.1,40.0,30.23,NW,326,4.0,-999.0,70,-99.99,,,0.00,weatherlink.com 1.10,2013-04-20 14:23:00,
2013-04-20 09:38:00,50.1,39.0,30.23,NNW,328,4.0,-999.0,67,-99.99,,,0.00,weatherlink.com 1.10,2013-04-20 14:38:00,
2013-04-20 09:53:00,51.2,38.0,30.24,North,355,2.0,-999.0,62,-99.99,,,0.00,weatherlink.com 1.10,2013-04-20 14:53:00,
2013-04-20 10:08:00,52.4,38.0,30.24,NE,55,0.0,-999.0,59,-99.99,,,0.00,weatherlink.com 1.10,2013-04-20 15:08:00,
2013-04-20 10:23:00,53.4,36.0,30.24,NNE,15,6.0,-999.0,52,-99.99,,,0.00,weatherlink.com 1.10,2013-04-20 15:23:00,
2013-04-20 10:38:00,53.9,32.0,30.24,NNE,31,6.0,-999.0,44,-99.99,,,0.00,weatherlink.com 1.10,2013-04-20 15:38:00,
2013-04-20 10:53:00,55.0,33.0,30.24,NNE,13,13.0,-999.0,43,-99.99,,,0.00,weatherlink.com 1.10,2013-04-20 15:53:00,
2013-04-20 11:08:00,55.1,29.0,30.24,North,351,9.0,-999.0,37,-99.99,,,0.00,weatherlink.com 1.10,2013-04-20 16:08:00,
2013-04-20 11:23:00,55.7,31.0,30.23,NNW,342,8.0,-999.0,39,-99.99,,,0.00,weatherlink.com 1.10,2013-04-20 16:23:00,
2013-04-20 11:38:00,56.7,32.0,30.23,North,351,11.0,-999.0,39,-99.99,,,0.00,weatherlink.com 1.10,2013-04-20 16:38:00,
2013-04-20 11:53:00,56.2,33.0,30.23,North,5,11.0,-999.0,41,-99.99,,,0.00,weatherlink.com 1.10,2013-04-20 16:53:00,
2013-04-20 12:08:00,57.1,32.0,30.22,North,5,10.0,-999.0,39,-99.99,,,0.00,weatherlink.com 1.10,2013-04-20 17:08:00,
2013-04-20 12:23:00,57.2,33.0,30.22,NNW,335,10.0,-999.0,40,-99.99,,,0.00,weatherlink.com 1.10,2013-04-20 17:23:00,
2013-04-20 12:38:00,57.5,32.0,30.22,North,355,13.0,-999.0,38,-99.99,,,0.00,weatherlink.com 1.10,2013-04-20 17:38:00,
2013-04-20 12:53:00,57.8,31.0,30.22,NW,317,9.0,-999.0,37,-99.99,,,0.00,weatherlink.com 1.10,2013-04-20 17:53:00,
2013-04-20 13:08:00,58.6,32.0,30.21,NNW,336,5.0,-999.0,37,-99.99,,,0.00,weatherlink.com 1.10,2013-04-20 18:08:00,
2013-04-20 13:23:00,58.7,32.0,30.21,NE,44,7.0,-999.0,36,-99.99,,,0.00,weatherlink.com 1.10,2013-04-20 18:23:00,
2013-04-20 13:38:00,59.0,32.0,30.21,North,360,11.0,-999.0,36,-99.99,,,0.00,weatherlink.com 1.10,2013-04-20 18:38:00,
2013-04-20 13:53:00,59.7,32.0,30.21,NNE,19,9.0,-999.0,35,-99.99,,,0.00,weatherlink.com 1.10,2013-04-20 18:53:00,
2013-04-20 14:08:00,59.6,34.0,30.20,NNW,331,14.0,-999.0,39,-99.99,,,0.00,weatherlink.com 1.10,2013-04-20 19:08:00,
2013-04-20 14:23:00,59.9,31.0,30.20,NNW,329,6.0,-999.0,34,-99.99,,,0.00,weatherlink.com 1.10,2013-04-20 19:23:00,
2013-04-20 14:38:00,60.2,32.0,30.20,NNW,347,9.0,-999.0,35,-99.99,,,0.00,weatherlink.com 1.10,2013-04-20 19:38:00,
2013-04-20 14:53:00,60.9,36.0,30.19,NNW,340,10.0,-999.0,39,-99.99,,,0.00,weatherlink.com 1.10,2013-04-20 19:53:00,
2013-04-20 15:08:00,60.6,33.0,30.19,NW,317,4.0,-999.0,35,-99.99,,,0.00,weatherlink.com 1.10,2013-04-20 20:08:00,
2013-04-20 15:23:00,61.2,33.0,30.19,North,5,11.0,-999.0,35,-99.99,,,0.00,weatherlink.com 1.10,2013-04-20 20:23:00,
2013-04-20 15:38:00,61.2,35.0,30.18,NW,316,8.0,-999.0,37,-99.99,,,0.00,weatherlink.com 1.10,2013-04-20 20:38:00,
2013-04-20 15:53:00,61.6,33.0,30.18,NNW,329,8.0,-999.0,34,-99.99,,,0.00,weatherlink.com 1.10,2013-04-20 20:53:00,
2013-04-20 16:08:00,61.1,33.0,30.17,NW,306,4.0,-999.0,35,-99.99,,,0.00,weatherlink.com 1.10,2013-04-20 21:08:00,
2013-04-20 16:23:00,61.3,33.0,30.17,NNE,19,11.0,-999.0,34,-99.99,,,0.00,weatherlink.com 1.10,2013-04-20 21:23:00,
2013-04-20 16:38:00,61.8,34.0,30.18,NNW,337,7.0,-999.0,35,-99.99,,,0.00,weatherlink.com 1.10,2013-04-20 21:38:00,
2013-04-20 16:53:00,62.1,33.0,30.17,North,360,5.0,-999.0,34,-99.99,,,0.00,weatherlink.com 1.10,2013-04-20 21:53:00,
2013-04-20 17:08:00,61.5,34.0,30.17,NNW,348,0.0,-999.0,36,-99.99,,,0.00,weatherlink.com 1.10,2013-04-20 22:08:00,
2013-04-20 17:23:00,61.5,33.0,30.17,North,5,8.0,-999.0,35,-99.99,,,0.00,weatherlink.com 1.10,2013-04-20 22:23:00,
2013-04-20 17:38:00,60.8,33.0,30.17,NNW,334,4.0,-999.0,36,-99.99,,,0.00,weatherlink.com 1.10,2013-04-20 22:38:00,
2013-04-20 17:53:00,60.7,33.0,30.16,NW,326,9.0,-999.0,35,-99.99,,,0.00,weatherlink.com 1.10,2013-04-20 22:53:00,
2013-04-20 18:08:00,60.4,34.0,30.16,North,351,7.0,-999.0,37,-99.99,,,0.00,weatherlink.com 1.10,2013-04-20 23:08:00,
2013-04-20 18:23:00,60.4,33.0,30.16,NNW,329,5.0,-999.0,36,-99.99,,,0.00,weatherlink.com 1.10,2013-04-20 23:23:00,
2013-04-20 18:38:00,60.0,35.0,30.16,NNW,331,9.0,-999.0,40,-99.99,,,0.00,weatherlink.com 1.10,2013-04-20 23:38:00,
2013-04-20 18:53:00,59.8,35.0,30.17,WNW,300,6.0,-999.0,39,-99.99,,,0.00,weatherlink.com 1.10,2013-04-20 23:53:00,
2013-04-20 19:08:00,59.0,35.0,30.17,NW,313,4.0,-999.0,40,-99.99,,,0.00,weatherlink.com 1.10,2013-04-21 00:08:00,
2013-04-20 19:23:00,58.3,36.0,30.18,NW,319,7.0,-999.0,43,-99.99,,,0.00,weatherlink.com 1.10,2013-04-21 00:23:00,
2013-04-20 19:38:00,57.6,37.0,30.18,NW,317,7.0,-999.0,47,-99.99,,,0.00,weatherlink.com 1.10,2013-04-21 00:38:00,
2013-04-20 19:53:00,57.2,37.0,30.18,NNW,336,4.0,-999.0,48,-99.99,,,0.00,weatherlink.com 1.10,2013-04-21 00:53:00,
2013-04-20 20:08:00,57.0,37.0,30.19,NNW,337,4.0,-999.0,48,-99.99,,,0.00,weatherlink.com 1.10,2013-04-21 01:08:00,
2013-04-20 20:23:00,56.3,38.0,30.20,North,355,0.0,-999.0,51,-99.99,,,0.00,weatherlink.com 1.10,2013-04-21 01:23:00,
2013-04-20 20:38:00,54.7,40.0,30.20,NNE,13,0.0,-999.0,57,-99.99,,,0.00,weatherlink.com 1.10,2013-04-21 01:38:00,
2013-04-20 20:53:00,53.4,40.0,30.21,NNE,13,0.0,-999.0,60,-99.99,,,0.00,weatherlink.com 1.10,2013-04-21 01:53:00,
2013-04-20 21:08:00,51.9,40.0,30.21,NNE,13,0.0,-999.0,64,-99.99,,,0.00,weatherlink.com 1.10,2013-04-21 02:08:00,
2013-04-20 21:23:00,51.3,40.0,30.22,NNE,13,0.0,-999.0,65,-99.99,,,0.00,weatherlink.com 1.10,2013-04-21 02:23:00,
2013-04-20 21:38:00,50.5,40.0,30.23,NNE,13,0.0,-999.0,68,-99.99,,,0.00,weatherlink.com 1.10,2013-04-21 02:38:00,
2013-04-20 21:53:00,50.2,39.0,30.23,NNE,17,3.0,-999.0,66,-99.99,,,0.00,weatherlink.com 1.10,2013-04-21 02:53:00,
2013-04-20 22:08:00,51.9,36.0,30.23,NE,36,0.0,-999.0,54,-99.99,,,0.00,weatherlink.com 1.10,2013-04-21 03:08:00,
2013-04-20 22:23:00,52.3,37.0,30.23,NE,36,0.0,-999.0,57,-99.99,,,0.00,weatherlink.com 1.10,2013-04-21 03:23:00,
2013-04-20 22:38:00,51.1,37.0,30.23,NE,36,0.0,-999.0,58,-99.99,,,0.00,weatherlink.com 1.10,2013-04-21 03:38:00,
2013-04-20 22:53:00,50.1,37.0,30.23,NE,36,0.0,-999.0,61,-99.99,,,0.00,weatherlink.com 1.10,2013-04-21 03:53:00,
2013-04-20 23:08:00,49.4,38.0,30.23,NE,36,0.0,-999.0,65,-99.99,,,0.00,weatherlink.com 1.10,2013-04-21 04:08:00,
2013-04-20 23:23:00,49.0,39.0,30.23,NE,36,0.0,-999.0,68,-99.99,,,0.00,weatherlink.com 1.10,2013-04-21 04:23:00,
2013-04-20 23:38:00,47.7,39.0,30.23,NE,36,0.0,-999.0,72,-99.99,,,0.00,weatherlink.com 1.10,2013-04-21 04:38:00,
2013-04-20 23:53:00,46.9,39.0,30.23,NE,36,0.0,-999.0,74,-99.99,,,0.00,weatherlink.com 1.10,2013-04-21 04:53:00,